GFSNE_prec_precacc24_102.txt.gz
Total_Precipitation_Accumulation
0.31 0.29 0.25 0.16 0.13 0.10 0.07 0.07 0.08 0.09 0.05 0.02 0.01 0.01 0.02 0.06 0.07 0.05 0.03 0.02 0.02 0.02 0.02 0.01 0.00 0.00 0.00 0.00 0.00 0.00 0.00 0.00 0.00 0.00 0.00 0.00 0.00 0.00
0.27 0.21 0.18 0.12 0.11 0.13 0.13 0.12 0.14 0.21 0.33 0.18 0.10 0.07 0.09 0.09 0.06 0.05 0.05 0.05 0.04 0.03 0.02 0.02 0.01 0.01 0.01 0.01 0.01 0.00 0.00 0.01 0.01 0.01 0.01 0.01 0.01 0.01
0.24 0.22 0.21 0.22 0.27 0.27 0.30 0.35 0.38 0.42 0.48 0.26 0.12 0.10 0.09 0.07 0.03 0.04 0.04 0.04 0.02 0.03 0.02 0.02 0.03 0.03 0.01 0.02 0.02 0.01 0.02 0.02 0.01 0.01 0.01 0.01 0.02 0.02
0.48 0.49 0.46 0.45 0.48 0.39 0.34 0.30 0.27 0.29 0.42 0.40 0.17 0.13 0.11 0.07 0.04 0.05 0.03 0.01 0.01 0.03 0.03 0.01 0.02 0.03 0.04 0.05 0.03 0.03 0.03 0.03 0.03 0.02 0.02 0.01 0.02 0.01
0.25 0.27 0.25 0.27 0.25 0.23 0.24 0.27 0.33 0.39 0.42 0.33 0.21 0.16 0.14 0.12 0.11 0.11 0.08 0.06 0.04 0.08 0.09 0.05 0.05 0.06 0.07 0.08 0.07 0.06 0.05 0.04 0.05 0.04 0.03 0.02 0.01 0.01
0.21 0.22 0.22 0.27 0.31 0.44 0.56 0.59 0.55 0.44 0.34 0.30 0.28 0.28 0.25 0.24 0.25 0.30 0.32 0.32 0.32 0.32 0.30 0.22 0.16 0.14 0.12 0.12 0.13 0.13 0.12 0.12 0.09 0.06 0.04 0.02 0.01 0.01
0.26 0.36 0.42 0.56 0.53 0.42 0.34 0.24 0.27 0.32 0.34 0.36 0.38 0.37 0.38 0.40 0.41 0.45 0.47 0.44 0.41 0.36 0.33 0.21 0.14 0.12 0.12 0.12 0.13 0.13 0.12 0.11 0.09 0.05 0.03 0.01 0.01 0.01
0.39 0.36 0.35 0.52 0.37 0.46 0.42 0.42 0.38 0.36 0.36 0.38 0.40 0.40 0.43 0.45 0.45 0.45 0.43 0.41 0.35 0.19 0.19 0.15 0.12 0.10 0.03 0.02 0.05 0.07 0.07 0.06 0.04 0.02 0.01 0.00 0.00 0.00
0.41 0.46 0.49 0.54 0.59 0.39 0.42 0.36 0.31 0.31 0.29 0.28 0.31 0.33 0.33 0.30 0.27 0.25 0.22 0.19 0.16 0.12 0.15 0.11 0.04 0.06 0.01 0.01 0.01 0.01 0.01 0.02 0.02 0.01 0.01 0.00 0.00 0.00
0.43 0.37 0.31 0.26 0.24 0.19 0.14 0.14 0.16 0.18 0.20 0.19 0.18 0.17 0.14 0.12 0.13 0.15 0.16 0.17 0.13 0.08 0.13 0.21 0.03 0.02 0.00 0.00 0.00 0.00 0.00 0.01 0.01 0.01 0.01 0.00 0.00 0.00
0.13 0.12 0.12 0.10 0.19 0.17 0.14 0.15 0.13 0.12 0.12 0.11 0.12 0.14 0.15 0.15 0.15 0.17 0.17 0.18 0.12 0.04 0.06 0.22 0.10 0.05 0.02 0.00 0.00 0.00 0.00 0.01 0.02 0.01 0.01 0.01 0.01 0.01
0.08 0.13 0.21 0.13 0.12 0.09 0.08 0.09 0.10 0.10 0.10 0.09 0.08 0.06 0.04 0.04 0.05 0.09 0.12 0.23 0.21 0.17 0.11 0.23 0.11 0.12 0.16 0.01 0.00 0.00 0.01 0.02 0.03 0.03 0.02 0.02 0.01 0.01
0.13 0.11 0.11 0.16 0.10 0.08 0.09 0.11 0.11 0.08 0.05 0.03 0.02 0.02 0.03 0.04 0.06 0.07 0.09 0.16 0.19 0.16 0.02 0.24 0.14 0.05 0.15 0.07 0.00 0.00 0.00 0.01 0.01 0.01 0.01 0.01 0.00 0.01
0.17 0.16 0.13 0.09 0.07 0.07 0.07 0.04 0.03 0.04 0.05 0.05 0.05 0.05 0.06 0.06 0.06 0.04 0.04 0.05 0.08 0.12 0.03 0.16 0.30 0.11 0.15 0.13 0.04 0.00 0.00 0.01 0.02 0.02 0.04 0.04 0.02 0.01
0.13 0.10 0.09 0.07 0.06 0.09 0.05 0.03 0.03 0.03 0.04 0.06 0.07 0.07 0.06 0.05 0.02 0.03 0.03 0.04 0.04 0.03 0.02 0.07 0.16 0.13 0.19 0.17 0.07 0.02 0.02 0.02 0.03 0.04 0.05 0.06 0.08 0.06
0.07 0.06 0.04 0.04 0.05 0.06 0.07 0.06 0.06 0.05 0.05 0.09 0.09 0.06 0.04 0.03 0.03 0.03 0.06 0.06 0.11 0.04 0.02 0.04 0.10 0.20 0.26 0.16 0.13 0.10 0.04 0.06 0.04 0.04 0.05 0.06 0.06 0.07
0.03 0.05 0.06 0.06 0.07 0.07 0.06 0.06 0.06 0.05 0.06 0.07 0.08 0.06 0.03 0.02 0.02 0.02 0.03 0.04 0.07 0.02 0.01 0.01 0.03 0.07 0.11 0.11 0.15 0.08 0.07 0.09 0.08 0.07 0.08 0.10 0.08 0.07
0.03 0.04 0.04 0.03 0.04 0.05 0.06 0.06 0.04 0.04 0.03 0.02 0.02 0.06 0.11 0.11 0.11 0.10 0.12 0.14 0.13 0.08 0.05 0.03 0.05 0.10 0.10 0.07 0.05 0.06 0.08 0.13 0.12 0.13 0.12 0.15 0.10 0.09
0.05 0.05 0.05 0.05 0.06 0.06 0.05 0.03 0.02 0.02 0.01 0.01 0.01 0.02 0.06 0.09 0.08 0.07 0.07 0.09 0.10 0.09 0.10 0.13 0.17 0.20 0.18 0.09 0.01 0.02 0.10 0.12 0.11 0.12 0.09 0.11 0.16 0.15
0.07 0.07 0.06 0.05 0.03 0.02 0.01 0.01 0.01 0.01 0.01 0.01 0.01 0.02 0.03 0.06 0.08 0.10 0.11 0.14 0.14 0.11 0.09 0.08 0.12 0.19 0.26 0.16 0.12 0.06 0.07 0.12 0.16 0.18 0.14 0.12 0.16 0.20
0.01 0.01 0.01 0.02 0.01 0.01 0.02 0.02 0.02 0.02 0.01 0.01 0.01 0.02 0.03 0.04 0.05 0.06 0.09 0.11 0.12 0.11 0.09 0.05 0.05 0.12 0.17 0.17 0.16 0.07 0.05 0.07 0.12 0.17 0.23 0.25 0.20 0.20
0.01 0.01 0.01 0.01 0.01 0.01 0.01 0.02 0.02 0.01 0.01 0.01 0.01 0.03 0.03 0.04 0.06 0.06 0.06 0.09 0.08 0.08 0.08 0.04 0.05 0.11 0.12 0.12 0.08 0.08 0.09 0.10 0.12 0.11 0.16 0.19 0.24 0.27
0.02 0.01 0.01 0.01 0.01 0.01 0.01 0.01 0.01 0.01 0.01 0.02 0.02 0.02 0.02 0.03 0.04 0.05 0.06 0.09 0.14 0.14 0.11 0.10 0.10 0.14 0.09 0.09 0.10 0.11 0.12 0.11 0.16 0.15 0.25 0.17 0.12 0.08

GFSNE_prec_precacc24_108.txt.gz
Total_Precipitation_Accumulation
0.16 0.20 0.22 0.16 0.16 0.13 0.09 0.08 0.10 0.09 0.05 0.02 0.01 0.01 0.02 0.06 0.07 0.05 0.03 0.04 0.04 0.03 0.05 0.05 0.04 0.05 0.05 0.06 0.06 0.07 0.09 0.12 0.14 0.15 0.14 0.14 0.15 0.17
0.13 0.13 0.14 0.10 0.11 0.14 0.14 0.13 0.15 0.22 0.33 0.18 0.10 0.07 0.09 0.10 0.08 0.07 0.06 0.06 0.05 0.03 0.02 0.03 0.03 0.03 0.04 0.05 0.05 0.07 0.08 0.10 0.14 0.17 0.22 0.25 0.22 0.17
0.19 0.20 0.20 0.21 0.27 0.28 0.32 0.37 0.39 0.43 0.49 0.26 0.12 0.11 0.12 0.12 0.11 0.15 0.14 0.08 0.04 0.03 0.02 0.02 0.04 0.06 0.07 0.08 0.11 0.15 0.19 0.20 0.19 0.18 0.19 0.20 0.21 0.24
0.47 0.49 0.46 0.46 0.49 0.40 0.35 0.31 0.29 0.31 0.48 0.48 0.28 0.29 0.34 0.25 0.15 0.11 0.06 0.02 0.01 0.05 0.05 0.02 0.03 0.05 0.09 0.13 0.16 0.19 0.20 0.21 0.21 0.20 0.19 0.19 0.22 0.23
0.26 0.29 0.28 0.30 0.28 0.25 0.26 0.30 0.40 0.55 0.70 0.66 0.48 0.34 0.26 0.21 0.17 0.15 0.11 0.07 0.07 0.20 0.16 0.11 0.07 0.07 0.07 0.08 0.09 0.10 0.12 0.14 0.18 0.20 0.21 0.23 0.23 0.23
0.24 0.25 0.23 0.27 0.32 0.44 0.57 0.69 0.77 0.78 0.70 0.60 0.50 0.46 0.37 0.28 0.27 0.31 0.33 0.33 0.33 0.34 0.38 0.30 0.23 0.17 0.14 0.14 0.14 0.15 0.17 0.20 0.23 0.25 0.24 0.23 0.21 0.21
0.26 0.36 0.43 0.59 0.57 0.47 0.43 0.38 0.43 0.49 0.52 0.54 0.52 0.44 0.40 0.40 0.41 0.45 0.47 0.44 0.40 0.36 0.33 0.22 0.15 0.15 0.18 0.22 0.22 0.22 0.23 0.24 0.24 0.23 0.20 0.17 0.16 0.15
0.41 0.39 0.40 0.61 0.48 0.62 0.59 0.59 0.56 0.57 0.53 0.49 0.47 0.43 0.45 0.46 0.45 0.45 0.43 0.37 0.31 0.19 0.19 0.15 0.12 0.10 0.04 0.03 0.08 0.12 0.16 0.19 0.19 0.19 0.18 0.16 0.14 0.13
0.47 0.54 0.62 0.74 0.81 0.54 0.66 0.62 0.54 0.51 0.41 0.34 0.33 0.33 0.33 0.30 0.26 0.23 0.20 0.18 0.17 0.12 0.16 0.12 0.04 0.06 0.01 0.01 0.01 0.02 0.03 0.06 0.10 0.14 0.16 0.16 0.15 0.14
0.53 0.49 0.46 0.48 0.56 0.51 0.42 0.39 0.33 0.23 0.20 0.19 0.19 0.17 0.15 0.13 0.13 0.15 0.16 0.16 0.12 0.08 0.14 0.24 0.03 0.02 0.00 0.00 0.00 0.00 0.02 0.06 0.09 0.10 0.10 0.11 0.11 0.11
0.29 0.35 0.41 0.43 0.53 0.43 0.27 0.18 0.14 0.12 0.12 0.11 0.12 0.14 0.15 0.16 0.14 0.15 0.14 0.16 0.09 0.03 0.07 0.23 0.10 0.06 0.02 0.00 0.00 0.00 0.01 0.04 0.10 0.11 0.12 0.12 0.12 0.13
0.33 0.42 0.48 0.29 0.21 0.14 0.10 0.09 0.10 0.10 0.10 0.09 0.08 0.06 0.04 0.04 0.04 0.06 0.09 0.16 0.15 0.14 0.12 0.19 0.11 0.13 0.17 0.01 0.00 0.00 0.01 0.02 0.04 0.05 0.05 0.06 0.09 0.15
0.22 0.20 0.15 0.18 0.11 0.08 0.09 0.11 0.11 0.08 0.05 0.02 0.02 0.02 0.03 0.04 0.05 0.06 0.08 0.14 0.16 0.14 0.03 0.23 0.14 0.06 0.16 0.07 0.00 0.00 0.00 0.01 0.01 0.01 0.02 0.01 0.02 0.08
0.23 0.21 0.16 0.10 0.08 0.07 0.07 0.05 0.03 0.04 0.05 0.05 0.04 0.05 0.05 0.05 0.06 0.04 0.03 0.04 0.07 0.11 0.03 0.13 0.28 0.12 0.17 0.14 0.05 0.01 0.00 0.01 0.02 0.02 0.04 0.05 0.03 0.04
0.14 0.11 0.09 0.07 0.06 0.09 0.05 0.03 0.03 0.03 0.04 0.05 0.06 0.06 0.05 0.04 0.02 0.02 0.01 0.02 0.01 0.01 0.01 0.05 0.15 0.13 0.21 0.19 0.10 0.04 0.03 0.02 0.03 0.05 0.06 0.08 0.10 0.10
0.07 0.06 0.04 0.04 0.05 0.06 0.07 0.06 0.06 0.05 0.04 0.06 0.05 0.04 0.03 0.02 0.02 0.01 0.01 0.01 0.02 0.00 0.00 0.03 0.09 0.19 0.25 0.16 0.13 0.10 0.05 0.07 0.04 0.05 0.05 0.06 0.06 0.07
0.04 0.05 0.07 0.06 0.07 0.07 0.06 0.06 0.06 0.05 0.05 0.05 0.03 0.02 0.01 0.01 0.01 0.01 0.00 0.01 0.02 0.02 0.01 0.01 0.03 0.07 0.10 0.11 0.14 0.09 0.08 0.10 0.10 0.07 0.08 0.09 0.08 0.07
0.04 0.04 0.04 0.03 0.04 0.05 0.06 0.06 0.04 0.04 0.03 0.01 0.01 0.01 0.01 0.01 0.01 0.01 0.01 0.01 0.03 0.05 0.05 0.03 0.05 0.08 0.08 0.07 0.05 0.06 0.09 0.13 0.12 0.13 0.12 0.16 0.11 0.09
0.05 0.05 0.05 0.05 0.06 0.06 0.05 0.03 0.02 0.02 0.01 0.01 0.00 0.01 0.01 0.01 0.02 0.01 0.01 0.02 0.02 0.03 0.09 0.13 0.16 0.19 0.17 0.09 0.01 0.02 0.11 0.12 0.11 0.12 0.09 0.11 0.17 0.15
0.07 0.07 0.06 0.05 0.03 0.02 0.01 0.01 0.01 0.01 0.01 0.01 0.01 0.01 0.02 0.02 0.02 0.02 0.01 0.02 0.02 0.01 0.02 0.03 0.10 0.19 0.27 0.17 0.12 0.06 0.07 0.13 0.16 0.20 0.15 0.12 0.16 0.20
0.01 0.01 0.01 0.02 0.01 0.01 0.02 0.01 0.02 0.02 0.01 0.01 0.01 0.02 0.02 0.03 0.03 0.01 0.02 0.02 0.02 0.03 0.03 0.03 0.05 0.13 0.18 0.17 0.17 0.07 0.05 0.07 0.12 0.19 0.26 0.28 0.20 0.20
0.01 0.01 0.01 0.01 0.01 0.01 0.01 0.02 0.01 0.01 0.01 0.01 0.01 0.02 0.02 0.02 0.02 0.03 0.03 0.03 0.03 0.03 0.05 0.03 0.03 0.10 0.12 0.12 0.08 0.08 0.09 0.10 0.12 0.11 0.16 0.21 0.27 0.29
0.01 0.01 0.01 0.01 0.01 0.01 0.01 0.01 0.01 0.01 0.01 0.02 0.02 0.01 0.02 0.02 0.02 0.03 0.03 0.02 0.02 0.03 0.03 0.03 0.05 0.13 0.09 0.09 0.10 0.12 0.13 0.12 0.17 0.18 0.26 0.17 0.12 0.11

GFSNE_prec_precacc24_114.txt.gz
Total_Precipitation_Accumulation
0.46 0.47 0.35 0.23 0.23 0.19 0.13 0.11 0.13 0.11 0.05 0.02 0.01 0.02 0.03 0.06 0.07 0.05 0.03 0.04 0.04 0.04 0.07 0.09 0.09 0.10 0.10 0.08 0.08 0.08 0.10 0.13 0.16 0.20 0.24 0.29 0.32 0.34
0.55 0.50 0.43 0.29 0.26 0.27 0.25 0.22 0.23 0.32 0.41 0.18 0.11 0.07 0.09 0.10 0.08 0.07 0.07 0.09 0.14 0.16 0.13 0.10 0.07 0.06 0.05 0.05 0.06 0.07 0.08 0.10 0.14 0.19 0.24 0.31 0.33 0.34
0.64 0.53 0.42 0.39 0.44 0.39 0.41 0.45 0.47 0.50 0.55 0.27 0.14 0.11 0.13 0.12 0.12 0.16 0.18 0.17 0.15 0.13 0.07 0.07 0.08 0.08 0.08 0.09 0.11 0.14 0.17 0.18 0.18 0.19 0.20 0.22 0.26 0.32
0.67 0.73 0.67 0.59 0.55 0.44 0.39 0.34 0.31 0.33 0.52 0.52 0.30 0.31 0.37 0.28 0.19 0.15 0.11 0.07 0.06 0.12 0.11 0.05 0.04 0.06 0.09 0.13 0.16 0.18 0.19 0.20 0.20 0.20 0.19 0.20 0.23 0.26
0.40 0.38 0.34 0.32 0.27 0.22 0.24 0.30 0.40 0.57 0.75 0.74 0.56 0.42 0.34 0.29 0.26 0.23 0.17 0.12 0.10 0.22 0.16 0.11 0.08 0.07 0.07 0.08 0.09 0.10 0.12 0.14 0.17 0.20 0.22 0.23 0.24 0.24
0.21 0.23 0.21 0.24 0.30 0.42 0.55 0.67 0.77 0.78 0.71 0.63 0.58 0.57 0.49 0.40 0.35 0.36 0.36 0.34 0.34 0.35 0.38 0.30 0.23 0.17 0.14 0.14 0.14 0.15 0.17 0.20 0.23 0.25 0.24 0.23 0.22 0.23
0.17 0.26 0.30 0.46 0.49 0.44 0.42 0.37 0.43 0.51 0.58 0.63 0.63 0.57 0.51 0.49 0.47 0.48 0.47 0.44 0.41 0.36 0.33 0.22 0.15 0.15 0.18 0.22 0.22 0.22 0.22 0.24 0.24 0.23 0.20 0.17 0.16 0.14
0.21 0.23 0.27 0.49 0.39 0.58 0.60 0.65 0.64 0.65 0.61 0.57 0.59 0.57 0.56 0.51 0.47 0.46 0.43 0.37 0.31 0.19 0.19 0.15 0.12 0.10 0.04 0.03 0.08 0.12 0.16 0.19 0.19 0.19 0.18 0.16 0.15 0.14
0.37 0.46 0.56 0.72 0.83 0.55 0.71 0.67 0.62 0.62 0.54 0.48 0.45 0.40 0.36 0.31 0.26 0.23 0.20 0.18 0.17 0.12 0.16 0.12 0.04 0.06 0.01 0.01 0.01 0.02 0.03 0.06 0.10 0.14 0.16 0.16 0.16 0.15
0.38 0.39 0.44 0.53 0.64 0.58 0.47 0.46 0.43 0.34 0.27 0.23 0.20 0.18 0.15 0.13 0.13 0.15 0.15 0.16 0.12 0.08 0.13 0.22 0.03 0.02 0.00 0.00 0.00 0.00 0.02 0.06 0.09 0.10 0.10 0.11 0.11 0.11
0.29 0.39 0.46 0.50 0.75 0.59 0.36 0.27 0.19 0.15 0.13 0.11 0.12 0.14 0.15 0.16 0.14 0.14 0.13 0.14 0.09 0.03 0.07 0.23 0.10 0.06 0.02 0.00 0.00 0.00 0.01 0.04 0.10 0.11 0.12 0.12 0.12 0.13
0.37 0.52 0.62 0.41 0.39 0.25 0.15 0.12 0.12 0.11 0.10 0.09 0.08 0.06 0.04 0.04 0.04 0.05 0.07 0.13 0.13 0.12 0.12 0.18 0.10 0.10 0.14 0.01 0.00 0.00 0.01 0.02 0.04 0.05 0.05 0.06 0.09 0.15
0.27 0.31 0.35 0.36 0.20 0.13 0.13 0.15 0.15 0.10 0.06 0.03 0.03 0.02 0.03 0.04 0.05 0.06 0.08 0.11 0.11 0.10 0.03 0.21 0.12 0.04 0.12 0.07 0.00 0.00 0.00 0.01 0.01 0.01 0.02 0.01 0.02 0.08
0.47 0.49 0.44 0.36 0.26 0.21 0.17 0.13 0.10 0.09 0.08 0.06 0.05 0.05 0.05 0.05 0.06 0.04 0.03 0.03 0.05 0.07 0.02 0.06 0.14 0.08 0.12 0.08 0.02 0.00 0.00 0.01 0.02 0.03 0.04 0.05 0.03 0.04
0.35 0.32 0.27 0.22 0.19 0.22 0.16 0.11 0.08 0.06 0.06 0.06 0.07 0.06 0.05 0.04 0.02 0.02 0.01 0.01 0.01 0.01 0.01 0.02 0.06 0.06 0.12 0.14 0.09 0.03 0.03 0.02 0.03 0.05 0.06 0.08 0.10 0.10
0.23 0.21 0.19 0.17 0.16 0.15 0.13 0.11 0.09 0.06 0.05 0.06 0.05 0.04 0.03 0.02 0.02 0.01 0.01 0.00 0.01 0.00 0.00 0.00 0.01 0.03 0.06 0.07 0.07 0.05 0.03 0.05 0.04 0.05 0.05 0.06 0.06 0.07
0.28 0.24 0.21 0.17 0.14 0.10 0.07 0.07 0.05 0.05 0.05 0.05 0.03 0.02 0.01 0.01 0.01 0.00 0.00 0.00 0.01 0.01 0.01 0.00 0.00 0.00 0.00 0.02 0.04 0.03 0.05 0.07 0.10 0.07 0.08 0.10 0.08 0.07
0.09 0.07 0.06 0.04 0.04 0.03 0.04 0.04 0.03 0.03 0.03 0.01 0.01 0.01 0.01 0.01 0.01 0.01 0.01 0.01 0.02 0.01 0.01 0.00 0.00 0.00 0.00 0.00 0.02 0.05 0.09 0.13 0.12 0.13 0.13 0.17 0.12 0.09
0.04 0.03 0.03 0.03 0.02 0.02 0.02 0.02 0.02 0.02 0.01 0.01 0.00 0.01 0.01 0.01 0.01 0.01 0.01 0.02 0.02 0.01 0.00 0.00 0.01 0.02 0.06 0.05 0.01 0.02 0.12 0.13 0.12 0.13 0.10 0.12 0.18 0.16
0.01 0.01 0.02 0.02 0.01 0.01 0.01 0.01 0.01 0.01 0.01 0.01 0.01 0.01 0.01 0.02 0.02 0.02 0.01 0.02 0.02 0.01 0.01 0.01 0.01 0.02 0.08 0.07 0.06 0.03 0.07 0.17 0.21 0.23 0.16 0.13 0.17 0.20
0.00 0.00 0.00 0.01 0.01 0.01 0.01 0.01 0.02 0.01 0.01 0.01 0.01 0.01 0.02 0.02 0.02 0.01 0.02 0.02 0.02 0.02 0.02 0.01 0.00 0.01 0.01 0.04 0.08 0.05 0.05 0.09 0.18 0.29 0.32 0.32 0.21 0.21
0.00 0.00 0.01 0.01 0.01 0.01 0.01 0.01 0.01 0.01 0.01 0.01 0.01 0.01 0.02 0.02 0.02 0.02 0.02 0.03 0.02 0.02 0.02 0.01 0.00 0.01 0.02 0.05 0.06 0.08 0.10 0.11 0.13 0.13 0.23 0.30 0.32 0.33
0.01 0.00 0.00 0.01 0.01 0.01 0.01 0.01 0.01 0.01 0.01 0.01 0.01 0.01 0.01 0.02 0.01 0.02 0.03 0.02 0.02 0.02 0.01 0.02 0.01 0.00 0.01 0.04 0.10 0.14 0.16 0.15 0.20 0.23 0.33 0.21 0.16 0.16

GFSNE_prec_precacc24_117.txt.gz
Total_Precipitation_Accumulation
0.43 0.43 0.32 0.22 0.23 0.18 0.13 0.10 0.13 0.11 0.05 0.02 0.01 0.02 0.06 0.08 0.09 0.06 0.05 0.06 0.05 0.04 0.07 0.09 0.09 0.11 0.12 0.11 0.10 0.09 0.10 0.14 0.17 0.21 0.25 0.29 0.33 0.35
0.56 0.53 0.49 0.36 0.30 0.27 0.24 0.22 0.25 0.35 0.43 0.18 0.13 0.12 0.13 0.12 0.09 0.07 0.08 0.10 0.14 0.17 0.14 0.11 0.11 0.10 0.09 0.08 0.07 0.08 0.10 0.12 0.15 0.19 0.25 0.31 0.33 0.34
0.57 0.57 0.54 0.54 0.58 0.49 0.48 0.50 0.52 0.57 0.60 0.27 0.19 0.18 0.18 0.16 0.14 0.17 0.20 0.18 0.18 0.19 0.09 0.08 0.09 0.09 0.09 0.10 0.12 0.15 0.17 0.18 0.18 0.19 0.20 0.22 0.26 0.31
0.44 0.58 0.66 0.66 0.67 0.56 0.49 0.44 0.38 0.40 0.60 0.56 0.37 0.38 0.43 0.32 0.21 0.16 0.14 0.10 0.09 0.15 0.12 0.05 0.04 0.06 0.09 0.13 0.16 0.18 0.19 0.20 0.19 0.19 0.19 0.20 0.23 0.25
0.45 0.39 0.36 0.36 0.32 0.28 0.25 0.30 0.40 0.58 0.76 0.78 0.65 0.50 0.42 0.33 0.29 0.26 0.21 0.14 0.11 0.24 0.17 0.11 0.08 0.07 0.07 0.08 0.09 0.10 0.12 0.14 0.17 0.20 0.21 0.23 0.23 0.24
0.44 0.35 0.23 0.21 0.26 0.37 0.54 0.66 0.74 0.76 0.68 0.62 0.58 0.58 0.54 0.45 0.39 0.39 0.39 0.37 0.37 0.36 0.39 0.31 0.23 0.17 0.14 0.14 0.14 0.15 0.17 0.20 0.23 0.25 0.24 0.23 0.22 0.22
0.27 0.29 0.36 0.48 0.43 0.37 0.36 0.31 0.34 0.41 0.49 0.60 0.62 0.57 0.52 0.49 0.48 0.49 0.48 0.45 0.41 0.36 0.33 0.22 0.16 0.15 0.18 0.22 0.22 0.22 0.22 0.24 0.24 0.23 0.20 0.17 0.16 0.14
0.34 0.26 0.27 0.46 0.36 0.50 0.49 0.51 0.51 0.56 0.54 0.54 0.57 0.57 0.56 0.52 0.47 0.46 0.43 0.37 0.31 0.19 0.19 0.15 0.12 0.10 0.04 0.03 0.08 0.12 0.16 0.19 0.19 0.19 0.18 0.16 0.15 0.14
0.31 0.27 0.28 0.40 0.54 0.34 0.53 0.56 0.56 0.59 0.52 0.47 0.44 0.40 0.37 0.32 0.27 0.23 0.20 0.18 0.17 0.12 0.16 0.12 0.04 0.06 0.01 0.01 0.01 0.02 0.03 0.06 0.10 0.14 0.16 0.16 0.16 0.15
0.21 0.23 0.27 0.35 0.50 0.47 0.39 0.39 0.38 0.29 0.24 0.21 0.19 0.18 0.15 0.13 0.13 0.15 0.15 0.16 0.12 0.08 0.13 0.21 0.03 0.02 0.00 0.00 0.00 0.00 0.02 0.06 0.09 0.10 0.10 0.11 0.11 0.11
0.24 0.34 0.40 0.46 0.70 0.51 0.29 0.20 0.15 0.13 0.13 0.12 0.13 0.14 0.16 0.16 0.15 0.15 0.13 0.14 0.08 0.03 0.07 0.23 0.10 0.06 0.02 0.00 0.00 0.00 0.01 0.04 0.10 0.11 0.12 0.12 0.12 0.13
0.34 0.49 0.58 0.39 0.39 0.23 0.13 0.10 0.11 0.10 0.08 0.08 0.09 0.08 0.06 0.06 0.05 0.06 0.07 0.12 0.12 0.12 0.12 0.18 0.10 0.10 0.13 0.01 0.00 0.00 0.01 0.02 0.04 0.05 0.05 0.06 0.09 0.15
0.22 0.27 0.35 0.34 0.18 0.12 0.11 0.12 0.13 0.11 0.11 0.09 0.08 0.06 0.05 0.05 0.05 0.06 0.07 0.11 0.11 0.10 0.03 0.19 0.11 0.03 0.10 0.06 0.00 0.00 0.00 0.01 0.01 0.01 0.02 0.01 0.02 0.08
0.39 0.44 0.46 0.36 0.24 0.18 0.16 0.16 0.15 0.13 0.12 0.10 0.07 0.06 0.06 0.05 0.06 0.04 0.03 0.03 0.05 0.07 0.02 0.06 0.13 0.07 0.10 0.07 0.01 0.00 0.00 0.01 0.02 0.03 0.04 0.05 0.03 0.04
0.35 0.36 0.33 0.27 0.24 0.26 0.20 0.15 0.13 0.12 0.10 0.08 0.07 0.05 0.04 0.03 0.02 0.02 0.01 0.01 0.01 0.01 0.01 0.02 0.06 0.06 0.10 0.11 0.07 0.03 0.03 0.02 0.03 0.05 0.06 0.08 0.10 0.10
0.34 0.31 0.27 0.26 0.24 0.22 0.19 0.16 0.11 0.06 0.03 0.04 0.03 0.02 0.02 0.02 0.02 0.01 0.01 0.00 0.01 0.00 0.00 0.00 0.01 0.03 0.06 0.05 0.05 0.03 0.02 0.03 0.03 0.04 0.05 0.06 0.06 0.07
0.43 0.40 0.34 0.25 0.18 0.11 0.06 0.04 0.03 0.02 0.02 0.02 0.01 0.01 0.01 0.01 0.01 0.00 0.00 0.00 0.01 0.01 0.01 0.00 0.00 0.00 0.00 0.01 0.01 0.02 0.02 0.03 0.06 0.06 0.07 0.10 0.08 0.07
0.17 0.12 0.09 0.06 0.04 0.02 0.02 0.02 0.01 0.01 0.02 0.00 0.01 0.01 0.01 0.01 0.01 0.01 0.01 0.01 0.02 0.01 0.01 0.00 0.00 0.00 0.00 0.00 0.00 0.02 0.06 0.10 0.09 0.08 0.12 0.17 0.11 0.09
0.05 0.03 0.03 0.02 0.01 0.00 0.01 0.00 0.01 0.01 0.01 0.01 0.00 0.01 0.01 0.01 0.01 0.01 0.01 0.02 0.02 0.01 0.00 0.00 0.01 0.02 0.06 0.04 0.00 0.01 0.08 0.10 0.09 0.11 0.09 0.13 0.20 0.15
0.01 0.01 0.01 0.01 0.00 0.00 0.00 0.00 0.01 0.01 0.01 0.01 0.01 0.01 0.01 0.02 0.01 0.01 0.01 0.02 0.02 0.01 0.01 0.01 0.01 0.02 0.07 0.06 0.04 0.00 0.01 0.08 0.16 0.22 0.15 0.13 0.17 0.20
0.00 0.00 0.00 0.00 0.00 0.00 0.01 0.01 0.01 0.01 0.01 0.01 0.01 0.01 0.01 0.02 0.02 0.01 0.01 0.01 0.02 0.02 0.02 0.01 0.00 0.01 0.01 0.02 0.04 0.01 0.00 0.03 0.16 0.32 0.37 0.34 0.21 0.21
0.00 0.00 0.00 0.00 0.01 0.01 0.01 0.01 0.01 0.01 0.01 0.01 0.01 0.01 0.01 0.02 0.02 0.02 0.02 0.03 0.02 0.02 0.02 0.01 0.00 0.01 0.01 0.03 0.04 0.02 0.02 0.04 0.11 0.14 0.28 0.36 0.35 0.35
0.01 0.00 0.00 0.01 0.00 0.00 0.00 0.01 0.01 0.01 0.01 0.01 0.01 0.01 0.01 0.01 0.01 0.02 0.02 0.02 0.02 0.02 0.01 0.02 0.01 0.00 0.01 0.02 0.05 0.07 0.07 0.11 0.20 0.23 0.33 0.21 0.17 0.17